FW0844 Weather Reports


time (UTC)temp
F
wind
direction
speed
knots
gust
knots
rain 1hr
in
rain 24hr
in
rain mn
in
humidity
%
barometer
mb
20260906212515 69 133 0.9 3.5 0.00 0.00 0.00 67 1018.1
20260906212108 68 100 1.7 3.5 0.00 0.00 0.00 65 1018.1
20260906211552 69 137 1.7 3.5 0.00 0.00 0.00 64 1018.1
20260906211016 69 136 0.9 3.5 0.00 0.00 0.00 64 1018.1
20260906210613 69 143 0.9 2.6 0.00 0.00 0.00 66 1018.1
20260906210054 69 144 0.9 4.3 0.00 0.00 0.00 64 1018.2
20260906205530 69 143 0.9 4.3 0.00 0.00 0.00 65 1018.0
20260906205113 69 126 1.7 3.5 0.00 0.00 0.00 65 1018.0
20260906204555 69 156 1.7 4.3 0.00 0.00 0.00 67 1017.9
20260906204023 69 102 0.9 6.1 0.00 0.00 0.00 66 1017.9
20260906203504 69 80 1.7 6.1 0.00 0.00 0.00 65 1017.9
20260906203058 70 145 1.7 4.3 0.00 0.00 0.00 63 1018.0
20260906202537 70 109 0.9 3.5 0.00 0.00 0.00 64 1017.9
20260906202007 70 147 1.7 5.2 0.00 0.00 0.00 66 1017.7
20260906201605 70 89 1.7 5.2 0.00 0.00 0.00 67 1017.7
20260906201042 70 126 1.7 4.3 0.00 0.00 0.00 68 1017.7
20260906200510 69 126 0.9 4.3 0.00 0.00 0.00 70 1017.7
20260906200111 69 125 1.7 5.2 0.00 0.00 0.00 67 1017.7
20260906195543 69 124 1.7 5.2 0.00 0.00 0.00 69 1017.8
20260906195012 69 133 0.9 4.3 0.00 0.00 0.00 65 1017.7
20260906194605 70 132 1.7 4.3 0.00 0.00 0.00 66 1017.8
20260906194046 70 82 1.7 7.0 0.00 0.00 0.00 66 1017.7
20260906193526 70 109 1.7 7.0 0.00 0.00 0.00 67 1017.7
20260906193111 70 132 0.9 3.5 0.00 0.00 0.00 67 1017.7
20260906192651 70 145 0.9 3.5 0.00 0.00 0.00 65 1017.7
20260906123531 62 71 0.9 6.1 0.00 0.00 0.00 96 1016.8
20260906122541 62 64 0.0 2.6 0.00 0.00 0.00 97 1016.8
20260906122011 62 64 0.9 3.5 0.00 0.00 0.00 97 1016.9
20260906121605 61 77 0.0 1.7 0.00 0.00 0.00 97 1016.8
20260906121044 61 77 0.0 1.7 0.00 0.00 0.00 97 1016.8
20260906120524 60 77 0.0 0.0 0.00 0.00 0.00 97 1016.8
20260906120107 60 77 0.0 0.0 0.00 0.00 0.00 97 1016.7
20260906115546 59 77 0.0 0.0 0.00 0.00 0.00 97 1016.6
20260906115017 58 77 0.0 0.0 0.00 0.00 0.00 97 1016.5
20260906114611 58 77 0.0 0.0 0.00 0.00 0.00 96 1016.5
20260906114051 58 76 0.0 0.0 0.00 0.00 0.00 96 1016.5
20260906113533 57 77 0.0 0.0 0.00 0.00 0.00 96 1016.4
20260906113003 57 77 0.0 0.0 0.00 0.00 0.00 96 1016.4
20260906112552 57 360 0.0 0.0 0.00 0.00 0.00 96 1016.4
20260906112033 57 360 0.0 0.0 0.00 0.00 0.00 96 1016.4
20260906111503 57 360 0.0 0.0 0.00 0.00 0.00 96 1016.2
20260906111055 57 360 0.0 0.0 0.00 0.00 0.00 96 1016.1
20260906110539 57 360 0.0 0.0 0.00 0.00 0.00 96 1016.2
20260906110007 57 82 0.0 0.0 0.00 0.00 0.00 95 1016.1
20260906105601 57 80 0.0 0.0 0.00 0.00 0.00 95 1016.1
20260906105039 57 81 0.0 0.0 0.00 0.00 0.00 96 1016.0
20260906104511 57 82 0.0 0.0 0.00 0.00 0.00 96 1015.9
20260906104102 57 80 0.0 0.0 0.00 0.00 0.00 96 1016.0
20260906103547 57 360 0.0 0.0 0.00 0.00 0.00 96 1015.9
20260906103013 57 80 0.0 0.0 0.00 0.00 0.00 96 1015.7
20260906102605 57 80 0.0 0.0 0.00 0.00 0.00 96 1015.7
20260906102046 57 360 0.0 0.0 0.00 0.00 0.00 96 1015.6
20260906101531 57 360 0.0 0.0 0.00 0.00 0.00 95 1015.7
20260906101109 58 360 0.0 0.0 0.00 0.00 0.00 95 1015.7
20260906100549 58 360 0.0 0.0 0.00 0.00 0.00 95 1015.7
20260906100018 58 360 0.0 0.0 0.00 0.00 0.00 95 1015.7
20260906095611 58 360 0.0 0.0 0.00 0.00 0.00 95 1015.6
20260906095052 58 360 0.0 0.0 0.00 0.00 0.00 95 1015.5
20260906094521 58 360 0.0 0.0 0.00 0.00 0.00 95 1015.4
20260906094001 58 360 0.0 0.0 0.00 0.00 0.00 95 1015.3
20260906093554 58 360 0.0 0.0 0.00 0.00 0.00 95 1015.3
20260906093034 58 360 0.0 0.0 0.00 0.00 0.00 95 1015.2
20260906092508 58 360 0.0 0.0 0.00 0.00 0.00 95 1015.2
20260906092056 58 360 0.0 0.0 0.00 0.00 0.00 95 1015.2
20260906091537 58 360 0.0 0.0 0.00 0.00 0.00 95 1015.2
20260906091007 58 360 0.0 0.0 0.00 0.00 0.00 95 1015.1
20260906090559 58 360 0.0 0.0 0.00 0.00 0.00 95 1015.1
20260906090040 58 360 0.0 0.0 0.00 0.00 0.00 95 1015.1
20260906085512 58 360 0.0 0.0 0.00 0.00 0.00 95 1015.0
20260906085104 58 360 0.0 0.0 0.00 0.00 0.00 95 1014.9
20260906084545 58 81 0.0 0.0 0.00 0.00 0.00 95 1014.8
20260906084020 58 81 0.0 0.0 0.00 0.00 0.00 95 1014.7
20260906083610 58 360 0.0 0.0 0.00 0.00 0.00 95 1014.6
20260906083050 58 82 0.0 0.0 0.00 0.00 0.00 95 1014.5
20260906082534 59 360 0.0 0.0 0.00 0.00 0.00 95 1014.5
20260906082002 59 360 0.0 0.0 0.00 0.00 0.00 95 1014.4
20260906081553 59 360 0.0 0.0 0.00 0.00 0.00 95 1014.5
20260906081034 59 360 0.0 0.0 0.00 0.00 0.00 95 1014.5
20260906080503 59 360 0.0 0.0 0.00 0.00 0.00 95 1014.4
20260906080055 59 360 0.0 0.0 0.00 0.00 0.00 95 1014.5
20260906075536 59 360 0.0 0.0 0.00 0.00 0.00 95 1014.5
20260906075005 59 360 0.0 0.0 0.00 0.00 0.00 95 1014.5
20260906074601 59 360 0.0 0.0 0.00 0.00 0.00 95 1014.5
20260906074038 59 360 0.0 0.0 0.00 0.00 0.00 95 1014.5
20260906073510 59 360 0.0 0.0 0.00 0.00 0.00 95 1014.5
20260906073059 59 360 0.0 0.0 0.00 0.00 0.00 95 1014.5
20260906072540 59 360 0.0 0.0 0.00 0.00 0.00 95 1014.5
20260906072011 59 360 0.0 0.0 0.00 0.00 0.00 95 1014.5
20260906071606 59 360 0.0 0.0 0.00 0.00 0.00 95 1014.4
20260906071045 59 360 0.0 0.0 0.00 0.00 0.00 95 1014.4
20260906070524 59 360 0.0 0.0 0.00 0.00 0.00 95 1014.5
20260906070115 59 82 0.0 0.0 0.00 0.00 0.00 95 1014.4
20260906065548 59 360 0.0 0.0 0.00 0.00 0.00 95 1014.4
20260906065018 59 82 0.0 0.0 0.00 0.00 0.00 95 1014.4
20260906064611 59 360 0.0 0.0 0.00 0.00 0.00 95 1014.4
20260906064052 59 360 0.0 0.0 0.00 0.00 0.00 95 1014.4
20260906063533 59 360 0.0 0.0 0.00 0.00 0.00 95 1014.5
20260906063003 59 360 0.0 0.0 0.00 0.00 0.00 95 1014.5
20260906062552 59 360 0.0 0.0 0.00 0.00 0.00 95 1014.6
20260906062033 59 360 0.0 0.0 0.00 0.00 0.00 95 1014.5
20260906061503 59 360 0.0 0.0 0.00 0.00 0.00 95 1014.6
20260906061056 59 360 0.0 0.0 0.00 0.00 0.00 95 1014.5
20260906060537 59 360 0.0 0.0 0.00 0.00 0.00 95 1014.6
20260906060009 59 360 0.0 0.0 0.00 0.00 0.00 95 1014.6
20260906055601 59 360 0.0 0.0 0.00 0.00 0.00 95 1014.7
20260906055039 59 360 0.0 0.0 0.00 0.00 0.00 95 1014.6
20260906054512 59 360 0.0 0.0 0.00 0.00 0.00 95 1014.7
20260906054102 59 360 0.0 0.0 0.00 0.00 0.00 95 1014.6
20260906053542 59 360 0.0 0.0 0.00 0.00 0.00 95 1014.7
20260906053013 59 360 0.0 0.0 0.00 0.00 0.00 95 1014.7
20260906052606 59 360 0.0 0.0 0.00 0.00 0.00 95 1014.7
20260906052046 58 360 0.0 0.0 0.00 0.00 0.00 95 1014.7
20260906051532 58 360 0.0 0.0 0.00 0.00 0.00 95 1014.7
20260906051108 58 360 0.0 0.0 0.00 0.00 0.00 94 1014.7
20260906050546 58 360 0.0 0.0 0.00 0.00 0.00 94 1014.7
20260906050027 58 360 0.0 0.0 0.00 0.00 0.00 94 1014.6
20260906045605 58 360 0.0 0.0 0.00 0.00 0.00 94 1014.7
20260906045045 58 360 0.0 0.0 0.00 0.00 0.00 94 1014.5
20260906044526 58 360 0.0 0.0 0.00 0.00 0.00 94 1014.6
20260906044110 58 360 0.0 0.0 0.00 0.00 0.00 94 1014.6
20260906043548 58 360 0.0 0.0 0.00 0.00 0.00 94 1014.6
20260906043030 58 360 0.0 0.0 0.00 0.00 0.00 93 1014.5
20260906042509 59 360 0.0 0.0 0.00 0.00 0.00 93 1014.5
20260906042052 59 360 0.0 0.0 0.00 0.00 0.00 93 1014.5
20260906041532 59 360 0.0 0.0 0.00 0.00 0.00 93 1014.6
20260906041113 59 360 0.0 0.0 0.00 0.00 0.00 93 1014.5
20260906040553 59 360 0.0 0.0 0.00 0.00 0.00 93 1014.5
20260906040038 59 360 0.0 0.0 0.00 0.00 0.00 93 1014.4
20260906035512 59 360 0.0 0.0 0.00 0.00 0.00 93 1014.4
20260906035054 59 360 0.0 0.0 0.00 0.00 0.00 93 1014.4
20260906034542 59 360 0.0 0.0 0.00 0.00 0.00 93 1014.3
20260906034014 60 360 0.0 0.0 0.00 0.00 0.00 93 1014.3
20260906033555 60 360 0.0 0.0 0.00 0.00 0.00 93 1014.3
20260906033039 60 360 0.0 0.0 0.00 0.00 0.00 93 1014.2
20260906032504 60 360 0.0 0.0 0.00 0.00 0.00 93 1014.2
20260906032056 60 360 0.0 0.0 0.00 0.00 0.00 93 1014.1
20260906031536 60 360 0.0 0.0 0.00 0.00 0.00 93 1014.1
20260906031019 60 360 0.0 0.0 0.00 0.00 0.00 93 1014.2
20260906030600 60 360 0.0 0.0 0.00 0.00 0.00 93 1014.2
20260906030041 60 360 0.0 0.0 0.00 0.00 0.00 93 1014.0
20260906025521 60 360 0.0 0.0 0.00 0.00 0.00 93 1014.2
20260906025105 60 360 0.0 0.0 0.00 0.00 0.00 93 1014.1
20260906024545 60 360 0.0 0.0 0.00 0.00 0.00 93 1014.0
20260906024030 60 360 0.0 0.0 0.00 0.00 0.00 93 1014.1
20260906023609 60 360 0.0 0.0 0.00 0.00 0.00 93 1014.0
20260906023050 60 360 0.0 0.0 0.00 0.00 0.00 93 1014.0
20260906022530 60 360 0.0 0.0 0.00 0.00 0.00 93 1013.9
20260906022112 60 360 0.0 0.0 0.00 0.00 0.00 93 1013.9
20260906021554 60 360 0.0 0.0 0.00 0.00 0.00 93 1013.9
20260906021036 60 360 0.0 0.0 0.00 0.00 0.00 93 1013.8
20260906020513 60 360 0.0 0.0 0.00 0.00 0.00 92 1013.8
20260906020057 60 360 0.0 0.0 0.00 0.00 0.00 92 1013.9
20260906015533 60 360 0.0 0.0 0.00 0.00 0.00 92 1013.9
20260906015004 60 360 0.0 0.0 0.00 0.00 0.00 92 1013.9
20260906014607 60 360 0.0 0.0 0.00 0.00 0.00 92 1013.9
20260906014036 60 360 0.0 0.0 0.00 0.00 0.00 91 1013.8
20260906013513 60 79 0.0 0.0 0.00 0.00 0.00 91 1013.7
20260906013057 60 78 0.0 0.0 0.00 0.00 0.00 91 1013.6
20260906012538 60 77 0.0 0.0 0.00 0.00 0.00 91 1013.6
20260906012009 61 77 0.0 0.0 0.00 0.00 0.00 91 1013.6
20260906011600 61 77 0.0 0.0 0.00 0.00 0.00 90 1013.6
20260906011040 61 77 0.0 0.0 0.00 0.00 0.00 90 1013.6
20260906010526 61 77 0.0 0.0 0.00 0.00 0.00 90 1013.5
20260906005542 61 77 0.0 0.0 0.00 0.00 0.00 90 1013.4
20260906005022 62 77 0.0 0.0 0.00 0.00 0.00 89 1013.5
20260906004605 62 77 0.0 0.0 0.00 0.00 0.00 89 1013.5
20260906004045 62 77 0.0 0.0 0.00 0.00 0.00 88 1013.5
20260906003526 62 77 0.0 0.0 0.00 0.00 0.00 88 1013.4
20260906003106 62 77 0.0 0.0 0.00 0.00 0.00 88 1013.4
20260906002546 63 77 0.0 0.0 0.00 0.00 0.00 87 1013.5
20260906002027 63 77 0.0 0.0 0.00 0.00 0.00 87 1013.5
20260906001609 63 77 0.0 0.0 0.00 0.00 0.00 86 1013.5
20260906001049 64 77 0.0 0.0 0.00 0.00 0.00 85 1013.4
20260906000529 64 77 0.0 0.0 0.00 0.00 0.00 85 1013.5
20260906000114 64 77 0.0 0.0 0.00 0.00 0.00 83 1013.5
20260905235556 65 77 0.0 0.0 0.00 0.00 0.00 83 1013.4
20260905235035 65 77 0.0 0.0 0.00 0.00 0.00 82 1013.4
20260905234514 66 76 0.0 0.0 0.00 0.00 0.00 81 1013.4
20260905234100 66 76 0.0 0.0 0.00 0.00 0.00 80 1013.3
20260905233537 66 76 0.0 1.7 0.00 0.00 0.00 78 1013.4
20260905233013 67 76 0.0 1.7 0.00 0.00 0.00 77 1013.4
20260905232559 67 76 0.9 1.7 0.00 0.00 0.00 77 1013.3
20260905232041 67 76 0.9 1.7 0.00 0.00 0.00 75 1013.3
20260905231520 68 76 0.9 2.6 0.00 0.00 0.00 74 1013.4
20260905231104 68 76 0.9 2.6 0.00 0.00 0.00 73 1013.3
20260905230542 68 76 0.9 2.6 0.00 0.00 0.00 72 1013.2
20260905230023 69 76 0.9 2.6 0.00 0.00 0.00 70 1013.2
20260905225606 69 76 0.9 2.6 0.00 0.00 0.00 70 1013.3
20260905225046 69 77 0.9 2.6 0.00 0.00 0.00 69 1013.3
20260905224527 70 77 0.9 2.6 0.00 0.00 0.00 68 1013.3
20260905224110 70 77 0.9 2.6 0.00 0.00 0.00 69 1013.3
20260905223548 70 77 0.9 3.5 0.00 0.00 0.00 68 1013.3
20260905223028 70 77 0.9 3.5 0.00 0.00 0.00 67 1013.4
20260905222612 71 74 0.9 2.6 0.00 0.00 0.00 67 1013.3
20260905222051 71 74 0.0 2.6 0.00 0.00 0.00 67 1013.2
20260905221533 71 74 0.9 2.6 0.00 0.00 0.00 65 1013.1
20260905221112 71 74 0.9 3.5 0.00 0.00 0.00 65 1013.1
20260905220551 72 74 0.9 3.5 0.00 0.00 0.00 65 1013.1
20260905220030 72 76 1.7 3.5 0.00 0.00 0.00 65 1013.1
20260905215512 72 81 0.9 4.3 0.00 0.00 0.00 64 1013.1
20260905215057 72 63 0.9 4.3 0.00 0.00 0.00 65 1013.0
20260905214536 72 121 0.9 3.5 0.00 0.00 0.00 65 1012.9
20260905214004 72 92 0.9 3.5 0.00 0.00 0.00 64 1012.8
20260905213556 72 89 0.9 3.5 0.00 0.00 0.00 65 1012.8